{"data":{"norad_id":61663,"intl_designator":"2024-193C","name":"STARLINK-32308","alt_names":[],"object_type":"PAYLOAD","status":"ACTIVE","operator":null,"country":"US","launch_date":"2024-10-26","launch_site_code":"AFETR","launch_vehicle":null,"mission":null,"orbit_class":"UNKNOWN","rcs_meters":null,"size_class":null,"mass_kg":null,"dimensions":null,"purposes":["comms"],"wikipedia_slug":null,"has_3d_model":false,"image_url":null,"decayed_at":null,"tle_current":{"epoch":"2026-09-21T03:17:47.799456Z","epoch_age_seconds":136946,"freshness":"FRESH","line1":"1 61663U 24193C   26264.13735879  .00000383  00000+0  22490-4 0  9998","line2":"2 61663  53.1606 258.6972 0001365  84.7039 275.4119 15.34394561106513","mean_motion":15.34394561,"eccentricity":0.0001365,"inclination_deg":53.1606,"raan_deg":258.6972,"arg_perigee_deg":84.7039,"mean_anomaly_deg":275.4119,"bstar":2.249e-5,"rev_number":10651,"period_min":93.848090745416,"perigee_km":461.78562920964,"apogee_km":463.65318300851,"semimajor_km":6840.8564061091,"source":"CELESTRAK","updated_at":"2026-09-22T09:00:49.400174Z"}}}